Regional Weather Roundup
Issued by NWS Wakefield, VA

Home | Current Version | Previous Version | Text Only | Print | Product List | Glossary On
Versions: 1 2 3 4 5 6 7 8 9 10 11 12 13 14 15 16 17 18 19 20 21 22 23 24 25 26 27 28 29 30 31 32 33 34 35 36 37 38 39 40 41 42 43 44 45 46 47 48 49 50
000
ASUS41 KAKQ 281310
RWRAKQ

REGIONAL WEATHER ROUNDUP
NATIONAL WEATHER SERVICE WAKEFIELD VA
900 AM EDT MON JUL 28 2014

Note: "fair" indicates few or no clouds below 12,000 feet with no
significant weather and/or obstructions to visibility. * = Denotes
station may not report precipitation (e.g., rain,snow,etc.),
thunder or fog.

VAZ042-051-052>054-056-281400-
NORTHERN VIRGINIA

CITY           SKY/WX    TMP DP  RH WIND       PRES   REMARKS
WASH NATIONAL  MOSUNNY   82  65  56 SW10      29.63R
DULLES         PTSUNNY   79  60  52 W16G24    29.64S
FORT BELVOIR   SUNNY     81  66  61 SW12      29.64R
QUANTICO       SUNNY     80  65  59 SW12      29.64S
FREDERICKSBRG* SUNNY     80  66  61 W13G18    29.64S
STAFFORD*      SUNNY     79  67  66 SW7       29.69R
WARRENTON      MOSUNNY   81  73  77 W5        29.65S
CULPEPER*      SUNNY    N/A N/A N/A SW9       29.66S
MANASSAS*      SUNNY     75  70  83 CALM      29.65R
LEESBURG*      PTSUNNY   77  66  69 W12G17    29.66R
WINCHESTER     MOSUNNY   72  63  73 W12       29.68R
$$

VAZ048-049-060>072-079>083-281400-
CENTRAL AND SOUTH CENTRAL VIRGINIA...AND NORTH CENTRAL NORTH CAROLINA

CITY           SKY/WX    TMP DP  RH WIND       PRES   REMARKS
RICHMOND       MOSUNNY   83  66  56 W16       29.68R
CHESTERFIELD*  SUNNY     81  63  54 W14       29.71R
HANOVER        SUNNY     81  66  60 W10       29.69R
TAPPAHANNOCK*  SUNNY     81  65  59 W8        29.66S
CHARLOTTSVILLE SUNNY     77  61  57 VRB5      29.69R
ORANGE*        SUNNY     79  61  53 S10G17    29.68S
LOUISA*        SUNNY     79  64  61 W12G18    29.67S
FARMVILLE*     SUNNY     79  64  61 CALM      29.69S
SOUTH HILL*    SUNNY     81  68  65 SW8       29.79R
ROANOKE RAPIDS NOT AVBL
RALEIGH        MOSUNNY   77  65  66 W7        29.80R
$$

VAZ088>098-281400-
SOUTHEAST VIRGINIA

CITY           SKY/WX    TMP DP  RH WIND       PRES   REMARKS
NORFOLK        SUNNY     83  68  60 SW17      29.68S
VIRGINIA BEACH MOSUNNY   83  69  62 SW13      29.68R
NORFOLK NAVAL  MOSUNNY   83  68  60 W10G22    29.70R
WEST POINT*    SUNNY     83  68  60 W10       29.68R
NEWPORT NEWS   SUNNY     85  70  60 W14       29.69R
LANGLEY AFB    SUNNY     82  71  68 SW15      29.68R
FORT EUSTIS    SUNNY     81  70  68 W8        29.67R
WILLIAMSBURG*  SUNNY     82  72  69 W12       29.69S
FRANKLIN*      SUNNY     82  66  57 W12       29.72R
WAKEFIELD      SUNNY     81  68  64 SW9       29.70R
$$

VAZ020-022-025-037-045-281400-
WESTERN AND SOUTHWEST VIRGINIA

CITY           SKY/WX    TMP DP  RH WIND       PRES   REMARKS
STAUNTON*      SUNNY     75  56  50 W9G17     29.74R
HOT SPRINGS VA CLOUDY    58  54  87 W20G28    29.85R
LYNCHBURG      MOSUNNY   76  62  62 W9        29.76R
DANVILLE       SUNNY     79  64  60 W13       29.77S
MARTINSVILLE   SUNNY     77  62  59 W6        29.82S
ROANOKE        MOSUNNY   74  56  53 NW16G25   29.79R
BLACKSBURG     MOSUNNY   72  61  68 W8G22       N/A
DUBLIN*        PTSUNNY   71  58  64 NW17G28   29.88R
MARION*        SUNNY    N/A N/A N/A W21G29    29.93R
HILLSVILLE*    PTSUNNY   67  59  76 W15G29    29.87R
RICHLANDS*     CLOUDY    66  61  85 W7        29.96R
WISE*          CLOUDY    64  61  88 W9        29.98R
ABINGDON*      PTSUNNY   69  65  88 W9        29.94S
$$

MDZ021>025-VAZ099-100-281400-
SOUTHERN MARYLAND AND THE DELMARVA PENINSULA

CITY           SKY/WX    TMP DP  RH WIND       PRES   REMARKS
PATUXENT RIVER MOSUNNY   81  68  64 W13G22    29.63R
BAY BRIDGE APT   N/A     81  66  61 W12G17    29.61R
LEONARDTOWN    SUNNY     79  66  65 W10       29.65R
DOVER          SUNNY     81  73  77 W12       29.58S
GEORGETOWN     SUNNY     81  72  74 VRB7      29.61S
EASTON         SUNNY     82  73  74 W10       29.65R
CAMBRIDGE      SUNNY     81  70  69 W9G16     29.61S
SALISBURY      NOT AVBL
OCEAN CITY     SUNNY     82  74  76 W10       29.62R
WALLOPS ISLAND SUNNY     83  73  72 W14G23    29.63S
ACCOMACK*        N/A     81  70  69 W10G18    29.65S
$$

NCZ012>017-030>032-281400-
EASTERN NORTH CAROLINA

CITY           SKY/WX    TMP DP  RH WIND       PRES   REMARKS
ELIZABETH CITY MOSUNNY   83  74  74 SW15      29.72S
AHOSKIE*       SUNNY     80  68  66 S3        29.74R
EDENTON*       MOSUNNY   83  69  64 W12G21    29.74R
CURRITUCK*     MOSUNNY   83  68  59 SW9       29.72S
KILL DEVIL HLS MOSUNNY   83  74  76 SW7       29.72S
MANTEO         NOT AVBL
CAPE HATTERAS  PTSUNNY   82  80  94 SW12      29.78R FOG
GOLDSBORO      MOSUNNY   79  69  70 W13       29.78R
WASHINGTON     PTSUNNY   79  71  74 W12       29.76S
GREENVILLE     SUNNY     81  68  65 W9        29.80R
NEW BERN       CLOUDY    83  74  74 SW9       29.80R
WILMINGTON     CLOUDY    83  74  74 W9        29.82R
$$

VAZ048-281400-
ELSEWHERE

CITY           SKY/WX    TMP DP  RH WIND       PRES   REMARKS
HARRISBURG PA  CLOUDY    71  66  84 NW7       29.61R
BALTIMORE      MOSUNNY   78  66  66 W9G18     29.61R
ANNAPOLIS      SUNNY     81  65  58 W12       29.61R
ANDREWS AFB    SUNNY     81  66  59 W10       29.63R
WILMINGTON DE  SUNNY     76  70  82 W9        29.60R
PHILADELPHIA   MOSUNNY   76  67  73 W14       29.59R
WILDWOOD NJ*   MOSUNNY   79  72  78 W10       29.60S
ATLANTIC CITY  MOSUNNY   78  72  81 W15G23    29.57F
HENDERSON NC   SUNNY     78  64  63 SW6       29.77S
GREENSBORO     MOSUNNY   76  65  68 W9        29.81R
ROCKY MOUNT    SUNNY     80  65  59 W8        29.77R
FAYETTEVILLE   PTSUNNY   82  67  60 W9        29.81R
CHARLOTTE      MOSUNNY   76  67  73 W6        29.85S
$$

VAZ100-281400-
MARINE

STATION/POSITION TIME  TEMP    WIND        PRES    WAVE   SWELL
                       AIR SEA DIR/SP/G            HT/PER HT/PER
                 (UTC) (F)     (DEG/KT/KT) (MB)    (FT/S) (FT/S)
44066 TX TWR #4  1300   76 74  220/ 10/ 12 1001.5F   3/ 5   2/ 6
CAPE MAY NJ      1300   75 77  250/ 11/ 12 1001.7R
LEWES DE         1300   79 70  280/ 11/ 13 1001.9F
15NM E FENWICK I 1300   75 73              1002.7R   4/ 5
OCEAN-CITY-INLET 1300   78 70  270/  9/ 12 1002.5S
WACHAPREAGUE VA  1300   81 78  240/  6/ 12 1003.7S
THOMAS POINT MD  1300   79 79  270/ 11/ 12 1003.3R
GOOSES REEF MD   1300   79     280/ 12/ 14 1003.4R
COVE POINT MD    1300   79     290/ 11/ 14 1002.9R
SOLOMONS ISLAND  1300      80                N/A
BISHOPS HEAD MD  1300   78 77  270/ 14/ 17 1002.8F
PINEY POINT MD   1300          290/ 14/ 18   N/A
POTOMAC MD       1300   80     280/ 16/ 19 1002.4S
CAMBRIDGE MD     1300   79 80  260/ 12/ 16 1002.5R
LEWISETTA VA     1300   80 79  270/ 11/ 17 1003.3S
RAPPAHANNOCK LGT 1300          240/ 17/ 18 1004.5R
STINGRAY PT      1300   80     260/ 12/ 14 1004.9S
YORK RVR RNG VA  1300   81     270/ 15/ 17 1003.9F
YORKTOWN VA      1300   80 80  240/ 15/ 19 1004.1S
JAMESTOWN VA     1300   78     290/ 10/ 14   N/A
DOMINION TERM VA 1300   80     250/ 14/ 16 1005.0S
KIPTOPEKE VA     1300      81  260/ 16/ 19   N/A
CHES BAY BRIDGE  1300   81 78  230/ 16/ 20 1004.2S
CAPE HENRY VA    1300   81     240/ 12/ 17 1003.8S
WILLOUBY STN VA  1300          250/ 15/ 20 1004.2R
S CRANEY ISL VA  1300          230/ 11/ 17 1005.2R
CAPE HENRY BUOY  1300      77                N/A     3/ 5
1ST LANDING BUOY 1300   81     240/ 16/ 19 1004.7S
CAPE CHARLES BUO 1300      72                N/A     3/ 4
OFFSHORE WE BUOY 1300      78                N/A     4/ 5
64NM E OF VA BCH 1300   80 78  230/ 19/ 21 1004.9R   5/ 6   2/ 9
DUCK PIER NC     1300   81 62  220/ 13/ 17 1005.7R
44056 DUCK FRF   1200                        N/A     2/10
OREGON INLET NC  1300   83 81  210/ 16/ 18 1006.8R
HATTERAS NC      1300   82 81  220/ 10/ 15 1008.6R
DIAMOND SHLS NC  1300          VRB 19/ 23  1008.0R   7/ 6   2/ 9
CAPE LOOKOUT NC  1200   83     220/ 12/ 16 1008.6F
$$


USA.gov is the U.S. government's official web portal to all federal, state and local government web resources and services.